Tracking 31011 objects as of 12-Jul-2025
HD Live streaming from Space Station
objects crossing your sky now

CZ-6A DEB

Track CZ-6A DEB now!
10-day predictions


NORAD ID: 54433
Int'l Code: 2022-151FH
Perigee: 833.2 km
Apogee: 1,220.3 km
Inclination: 99.2 °
Period: 105.5 minutes
Semi major axis: 7397 km
RCS: Unknown
Launch date: November 11, 2022
Source: People's Republic of China (PRC)
Launch site: Taiyaun Space Center, China (TSC)

Note: This is SATELLITE DEBRIS
Your satellite tracking list
Your tracking list is empty




NASA's NSSDC Master Catalog

Two Line Element Set (TLE):
1 54433U 22151FH  25192.86620527  .00000176  00000-0  21277-3 0  9991
2 54433  99.1985 158.7267 0261665  65.1356 297.6751 13.64442350132386
Source of the keplerian elements: AFSPC